STARLINK-1032 (44737 NORAD) Tracking and Keplerian Element Data

This shows tracking and keplerian element data for the satellite.

Feedback or suggestion? Click here.




ElementValue
Catalog44737
NameSTARLINK-1032
Epoch Orbit161
Epoch Day93.91667824
Epoch Year2020
RAAN213.635
Inclination53
Eccentricity0.0001067
Argument of Perigee80.5406
Mean Anonmoly121.8255
Mean Motion15.05582445
Decay Rate-0.000182
L11 44737U 19074AA 20093.91667824 -.00018200 00000-0 -12331-2 0 9998
L22 44737 53.0000 213.6350 0001067 80.5406 121.8255 15.05582445 1613

Live tracking and technical data element details for STARLINK-1032 (NORAD 44737). STARLINK-1032 can be tracked NOW for your location showing map with azimuth and elevation plus other details from your city location.

Track the satellite on the map from your city or location and see movement details for azimuth, elevation, latitude, longitude, range, height, and movement on the map or in text.







IsCatalogInMostPopularTable: catalog: 44737, numindb: 33
Update: records affected: 1



GetName: 44737 STARLINK-1032

Hit Count: updated at: Fri, 10 Apr 2020 18:08:06 GMT